Starlink 1707

operational
NORAD ID: 46359 Int'l Des: 2020-062 Owner: SPXS Country: US Constellation: starlink
LEOCIRCULAR

About Starlink 1707

Description loading...

Live Position

Loading 3D Globe...

Upcoming Passes

Altitude History

Altitude vs Time

uPlot chart will show altitude changes over time

Two-Line Element Set

1 46359U 20062AL 26102.29365564 .00071818 00000-0 54686-3 0 9995
2 46359 53.0211 108.7004 0003360 17.3486 342.7645 15.71624968311018
Epoch: Apr 12, 2026 • Age: 10 hours

Current Status

Altitude 364.0 km
Velocity 7.69 km/s
Sub-Earth Point -26.18°S, 149.31°W
Launch Date Sep 3, 2020
Age 5.6 years
Type internet

Technical Details

Classification Payload
Mass 260.00 kg
Dry Mass 248.00 kg
Total Mass 260.00 kg
Length 0.20 m
Diameter 2.80 m
Span 9.00 m
Shape Box + pan
Manufacturer SPXS
Bus Type Starlink
Phase Status In Orbit
Owner/State SPXS/US

Large Constellations

Loading constellations...